Location: Caixon
(43.4106°N, 0.0273°E)
Time: 21:47:00
(UTC+00:00)

Cosmos 1842 - Pass Details

Date: 16 October 2021
Orbit: 519 x 535 km, 82.5° (Epoch: 07 December)

Event Time Altitude Azimuth Distance (km) Brightness Sun altitude
Exits shadow 05:05:37 15° 230° (SW) 1,520 5.1 -13.4°
Maximum altitude 05:08:17 29° 285° (WNW) 998 4.1 -12.9°
Drops below altitude 10° 05:11:46 10° 347° (NNW) 1,796 5.8 -12.3°
Sets 05:14:09 0° 358° (N) 2,690 6.8 -11.8°
